Location: Rehoboth Beach
(38.7438°N, 75.1341°W)
Time: 08:15:38
(UTC-04:00)

Cosmos 1452 Rocket - Visible Passes

Search period start: 25 June 2016 00:00
Search period end: 05 July 2016 00:00
Orbit: 768 x 775 km, 74.1° (Epoch: 24 June)

Date Brightness Start Highest point End Pass type
(mag) Time Alt. Az. Time Alt. Az. Time Alt. Az.
25 Jun 6.0 02:08:28 10° ESE 02:09:38 11° E 02:10:48 10° E visible
25 Jun 3.5 03:48:08 28° SSW 03:50:58 79° WNW 03:56:16 10° NNE visible
26 Jun 3.8 03:12:59 36° S 03:15:00 61° ESE 03:20:12 10° NNE visible
26 Jun 5.4 04:54:17 10° W 04:57:35 17° WNW 05:00:54 10° NNW visible
27 Jun 4.6 02:37:48 30° SE 02:39:08 35° E 02:43:53 10° NE visible
27 Jun 4.8 04:18:09 16° WSW 04:21:18 27° WNW 04:25:43 10° N visible
28 Jun 5.2 02:02:35 20° ESE 02:03:21 21° E 02:07:10 10° NE visible
28 Jun 4.1 03:42:56 29° WSW 03:45:07 43° WNW 03:50:08 10° N visible
29 Jun 5.8 01:27:21 11° E 01:27:40 12° E 01:29:23 10° ENE visible
29 Jun 3.5 03:07:41 50° SW 03:09:02 74° WNW 03:14:18 10° NNE visible
30 Jun 3.6 02:32:25 59° SE 02:33:04 65° ESE 02:38:17 10° NNE visible
30 Jun 5.5 04:12:45 11° W 04:15:41 16° WNW 04:18:50 10° NNW visible
01 Jul 4.4 01:57:07 37° ESE 01:57:11 37° E 02:02:00 10° NE visible
01 Jul 4.9 03:37:27 20° W 03:39:23 25° WNW 03:43:42 10° N visible
02 Jul 5.2 01:21:47 22° E 01:21:47 22° E 01:25:21 10° NE visible
02 Jul 4.2 03:02:07 37° W 03:03:12 41° WNW 03:08:10 10° N visible
03 Jul 5.8 00:46:26 12° E 00:46:26 12° E 00:47:48 10° ENE visible
03 Jul 3.4 02:26:46 68° W 02:27:06 70° WNW 02:32:22 10° NNE visible
04 Jul 3.6 01:51:23 68° E 01:51:23 68° E 01:56:22 10° NNE visible
04 Jul 5.6 03:31:43 12° W 03:33:47 15° WNW 03:36:45 10° NNW visible
